This is the latest recevied weather packets stored in our database for station/object OM8AKX-12. If no packets are shown the sender has not sent any weather packets the latest 10 day(s).
| Time | Temp. | Humidity | Pressure | Rain* | Wind** | Luminosity | Snow |
|---|---|---|---|---|---|---|---|
| 1777616683 | 11.67° C | 35% | 1022.4 hPa | - | - | - | - |
| 1777613984 | 6.11° C | 53% | 1022.6 hPa | - | - | - | - |
| 1777613090 | 5° C | 57% | 1022.6 hPa | - | - | - | - |
| 1777612185 | 4.44° C | 59% | 1022.5 hPa | - | - | - | - |
| 1777610391 | 2.22° C | 68% | 1022.5 hPa | - | - | - | - |
| 1777609489 | 1.67° C | 70% | 1022.5 hPa | - | - | - | - |
| 1777607683 | 0° C | 76% | 1022.6 hPa | - | - | - | - |
| 1777606789 | -1.11° C | 79% | 1022.6 hPa | - | - | - | - |
| 1777605883 | -1.67° C | 80% | 1022.6 hPa | - | - | - | - |
| 1777604983 | -2.22° C | 79% | 1022.6 hPa | - | - | - | - |
| 1777604082 | -1.67° C | 77% | 1022.7 hPa | - | - | - | - |
| 1777603183 | -1.67° C | 76% | 1022.7 hPa | - | - | - | - |
| 1777602287 | -1.67° C | 75% | 1022.8 hPa | - | - | - | - |
| 1777601386 | -1.11° C | 73% | 1022.6 hPa | - | - | - | - |
| 1777599586 | -0.56° C | 76% | 1022.6 hPa | - | - | - | - |
| 1777598689 | -1.11° C | 75% | 1022.5 hPa | - | - | - | - |
| 1777597782 | -0.56° C | 73% | 1022.5 hPa | - | - | - | - |
| 1777596884 | -0.56° C | 74% | 1022.4 hPa | - | - | - | - |
| 1777595089 | -0.56° C | 68% | 1022.4 hPa | - | - | - | - |
| 1777594183 | 0° C | 69% | 1022.4 hPa | - | - | - | - |
| 1777593282 | 1.67° C | 62% | 1022.3 hPa | - | - | - | - |
| 1777592383 | 0° C | 67% | 1022.4 hPa | - | - | - | - |
| 1777591485 | 0° C | 66% | 1022.5 hPa | - | - | - | - |
| 1777590582 | 0.56° C | 64% | 1022.4 hPa | - | - | - | - |
| 1777589685 | 0.56° C | 61% | 1022.5 hPa | - | - | - | - |
* Rain since midnight (hover to see other rain measurements)
** Current wind speed in m/s (hover to see current wind gust speed)